カタログに戻る

MOLA

運用中科学VLEO
NORAD 59289·PAYLOAD·🇺🇸 United States

打ち上げ Mar 21, 2024 から Wallops Flight Facility

Loading…

次のパス (今後24時間)

TLE

最新Source: Space-Track

元期: Sep 14, 2026, 04:30 UTC

1 59289U 24053B   26257.18786012  .00051015  00000-0  46057-3 0  9999
2 59289  49.9828 188.1943 0001937  81.2297 278.8896 15.67568545135423

AllMySatでMOLAをリアルタイム追跡

Download on the App Store